• Em Portugal
  • Lista de países
  • Para 7 dias
  • Temperatura da água
  • Mapas de satélite
  • Mapa do tempo
  • Widgets de tempo
  • user-avatar
    Iniciar Sessão

    Previsão horária em Plovdiv

    Hoje, 22 Setembro, Sábado

    Tempo Temperatura Precipitação Vento Pressão Humidade
    00:00 +20°C° 0 mm 1 m/s 740 mmHg 60%
    01:00 +19°C° 0 mm 1 m/s 740 mmHg 62%
    02:00 +19°C° 0 mm 1 m/s 740 mmHg 63%
    03:00 +19°C° 0 mm 1 m/s 740 mmHg 64%
    04:00 +19°C° 0 mm 1 m/s 740 mmHg 64%
    05:00 +19°C° 0 mm 1 m/s 740 mmHg 65%
    06:00 +20°C° 0 mm 1 m/s 740 mmHg 61%
    07:00 +21°C° 0 mm 1 m/s 740 mmHg 57%
    08:00 +23°C° 0 mm 1 m/s 740 mmHg 53%
    09:00 +25°C° 0 mm 1 m/s 740 mmHg 47%
    10:00 +27°C° 0 mm 1 m/s 740 mmHg 40%
    11:00 +30°C° 0 mm 1 m/s 740 mmHg 33%
    12:00 +30°C° 0 mm 1 m/s 740 mmHg 31%
    13:00 +31°C° 0 mm 1 m/s 740 mmHg 30%
    14:00 +32°C° 0 mm 2 m/s 739 mmHg 28%
    15:00 +31°C° 0 mm 2 m/s 739 mmHg 30%
    16:00 +30°C° 0 mm 2 m/s 739 mmHg 32%
    17:00 +30°C° 0 mm 2 m/s 739 mmHg 33%
    18:00 +27°C° 0 mm 1 m/s 739 mmHg 38%
    19:00 +25°C° 0 mm 1 m/s 739 mmHg 43%
    20:00 +23°C° 0 mm 1 m/s 739 mmHg 47%
    21:00 +23°C° 0 mm 1 m/s 740 mmHg 48%
    22:00 +22°C° 0 mm 1 m/s 740 mmHg 49%
    23:00 +21°C° 0 mm 2 m/s 740 mmHg 50%

    Amanhã, 23 Setembro, Domingo

    Tempo Temperatura Precipitação Vento Pressão Humidade
    00:00 +21°C° 0 mm 2 m/s 740 mmHg 50%
    01:00 +20°C° 0 mm 2 m/s 741 mmHg 51%
    02:00 +20°C° 0 mm 2 m/s 741 mmHg 51%
    03:00 +20°C° 0 mm 2 m/s 741 mmHg 52%
    04:00 +19°C° 0 mm 2 m/s 741 mmHg 53%
    05:00 +19°C° 0 mm 2 m/s 741 mmHg 55%
    06:00 +21°C° 0 mm 2 m/s 741 mmHg 53%
    07:00 +23°C° 0 mm 1 m/s 741 mmHg 51%
    08:00 +24°C° 0 mm 1 m/s 742 mmHg 50%
    09:00 +26°C° 0 mm 1 m/s 742 mmHg 45%
    10:00 +29°C° 0 mm 1 m/s 742 mmHg 41%
    11:00 +31°C° 0 mm 1 m/s 742 mmHg 37%
    12:00 +32°C° 0 mm 1 m/s 742 mmHg 35%
    13:00 +32°C° 0 mm 1 m/s 742 mmHg 34%
    14:00 +34°C° 0 mm 2 m/s 741 mmHg 32%
    15:00 +32°C° 0 mm 1 m/s 741 mmHg 35%
    16:00 +31°C° 0 mm 1 m/s 741 mmHg 37%
    17:00 +31°C° 0 mm 1 m/s 740 mmHg 39%
    18:00 +29°C° 0 mm 1 m/s 741 mmHg 44%
    19:00 +26°C° 0 mm 1 m/s 741 mmHg 50%
    20:00 +24°C° 0 mm 1 m/s 741 mmHg 55%
    21:00 +24°C° 0 mm 1 m/s 741 mmHg 56%
    22:00 +23°C° 0 mm 1 m/s 741 mmHg 57%
    23:00 +23°C° 0 mm 1 m/s 741 mmHg 59%

    Depois de amanhã, 24 Setembro, Segunda-feira

    Tempo Temperatura Precipitação Vento Pressão Humidade
    00:00 +22°C° 0 mm 1 m/s 741 mmHg 60%
    01:00 +22°C° 0 mm 1 m/s 740 mmHg 61%
    02:00 +21°C° 0 mm 1 m/s 740 mmHg 63%
    03:00 +21°C° 0 mm 1 m/s 739 mmHg 64%
    04:00 +21°C° 0 mm 1 m/s 739 mmHg 65%
    05:00 +20°C° 0 mm 1 m/s 739 mmHg 66%
    06:00 +22°C° 0 mm 1 m/s 738 mmHg 62%
    07:00 +23°C° 0 mm 1 m/s 738 mmHg 59%
    08:00 +24°C° 0 mm 1 m/s 738 mmHg 55%
    09:00 +27°C° 0 mm 1 m/s 738 mmHg 48%
    10:00 +29°C° 0 mm 1 m/s 738 mmHg 41%
    11:00 +32°C° 0 mm 1 m/s 738 mmHg 33%
    12:00 +34°C° 0 mm 2 m/s 737 mmHg 31%
    13:00 +34°C° 0 mm 2 m/s 737 mmHg 29%
    14:00 +35°C° 0 mm 3 m/s 736 mmHg 27%
    15:00 +34°C° 0 mm 3 m/s 737 mmHg 32%
    16:00 +32°C° 0 mm 4 m/s 737 mmHg 37%
    17:00 +30°C° 0 mm 4 m/s 737 mmHg 42%
    18:00 +27°C° 0 mm 4 m/s 738 mmHg 48%
    19:00 +24°C° 0 mm 3 m/s 739 mmHg 55%
    20:00 +21°C° 0 mm 3 m/s 739 mmHg 61%
    21:00 +20°C° 0 mm 3 m/s 740 mmHg 61%
    22:00 +19°C° 0 mm 3 m/s 741 mmHg 61%
    23:00 +18°C° 0 mm 3 m/s 741 mmHg 61%

    25 Setembro, Terça-feira

    Tempo Temperatura Precipitação Vento Pressão Humidade
    00:00 +18°C° 0 mm 3 m/s 742 mmHg 61%
    01:00 +17°C° 0 mm 3 m/s 742 mmHg 61%
    02:00 +16°C° 0 mm 3 m/s 742 mmHg 61%
    03:00 +16°C° 0 mm 3 m/s 742 mmHg 61%
    04:00 +14°C° 0 mm 3 m/s 743 mmHg 61%
    05:00 +14°C° 0 mm 3 m/s 743 mmHg 61%
    06:00 +14°C° 0 mm 3 m/s 744 mmHg 58%
    07:00 +16°C° 0 mm 3 m/s 744 mmHg 56%
    08:00 +16°C° 0 mm 3 m/s 744 mmHg 53%
    09:00 +16°C° 0 mm 3 m/s 745 mmHg 50%
    10:00 +16°C° 0 mm 3 m/s 745 mmHg 46%
    11:00 +16°C° 0 mm 3 m/s 745 mmHg 43%
    12:00 +17°C° 0 mm 3 m/s 745 mmHg 41%
    13:00 +17°C° 0 mm 3 m/s 745 mmHg 39%
    14:00 +17°C° 0 mm 3 m/s 745 mmHg 37%
    15:00 +18°C° 0 mm 3 m/s 745 mmHg 35%
    16:00 +18°C° 0 mm 3 m/s 745 mmHg 32%
    17:00 +18°C° 0 mm 3 m/s 745 mmHg 30%
    18:00 +16°C° 0 mm 2 m/s 745 mmHg 33%
    19:00 +14°C° 0 mm 2 m/s 745 mmHg 36%
    20:00 +12°C° 0 mm 2 m/s 746 mmHg 40%
    21:00 +10°C° 0 mm 2 m/s 746 mmHg 41%
    22:00 +10°C° 0 mm 2 m/s 746 mmHg 42%
    23:00 +9°C° 0 mm 2 m/s 747 mmHg 44%

    26 Setembro, Quarta-feira

    Tempo Temperatura Precipitação Vento Pressão Humidade
    00:00 +9°C° 0 mm 2 m/s 747 mmHg 45%
    01:00 +8°C° 0 mm 2 m/s 747 mmHg 46%
    02:00 +8°C° 0 mm 2 m/s 747 mmHg 48%
    03:00 +8°C° 0 mm 2 m/s 747 mmHg 49%
    04:00 +7°C° 0 mm 2 m/s 746 mmHg 50%
    05:00 +8°C° 0 mm 1 m/s 746 mmHg 51%
    06:00 +10°C° 0 mm 1 m/s 746 mmHg 47%
    07:00 +11°C° 0 mm 1 m/s 746 mmHg 43%
    08:00 +13°C° 0 mm 1 m/s 746 mmHg 40%
    09:00 +15°C° 0 mm 1 m/s 746 mmHg 36%
    10:00 +16°C° 0 mm 1 m/s 746 mmHg 31%
    11:00 +18°C° 0 mm 2 m/s 745 mmHg 27%
    12:00 +19°C° 0 mm 2 m/s 745 mmHg 26%
    13:00 +20°C° 0 mm 2 m/s 744 mmHg 24%
    14:00 +20°C° 0 mm 2 m/s 743 mmHg 23%
    15:00 +19°C° 0 mm 3 m/s 743 mmHg 24%
    16:00 +19°C° 0 mm 3 m/s 743 mmHg 26%
    17:00 +18°C° 0 mm 3 m/s 743 mmHg 28%
    18:00 +16°C° 0 mm 3 m/s 743 mmHg 33%
    19:00 +13°C° 0 mm 3 m/s 744 mmHg 39%
    20:00 +12°C° 0 mm 2 m/s 744 mmHg 45%
    21:00 +12°C° 0.1 mm 2 m/s 744 mmHg 51%
    22:00 +10°C° 0.1 mm 2 m/s 745 mmHg 58%
    23:00 +9°C° 0.1 mm 2 m/s 745 mmHg 64%

    27 Setembro, Quinta-feira

    Tempo Temperatura Precipitação Vento Pressão Humidade
    00:00 +9°C° 0.1 mm 2 m/s 746 mmHg 69%
    01:00 +8°C° 0.1 mm 2 m/s 746 mmHg 74%
    02:00 +8°C° 0.1 mm 2 m/s 746 mmHg 79%
    03:00 +7°C° 0 mm 2 m/s 746 mmHg 81%
    04:00 +7°C° 0 mm 2 m/s 746 mmHg 82%
    05:00 +7°C° 0 mm 2 m/s 746 mmHg 84%
    06:00 +8°C° 0 mm 3 m/s 747 mmHg 78%
    07:00 +8°C° 0 mm 3 m/s 747 mmHg 73%
    08:00 +9°C° 0 mm 3 m/s 747 mmHg 67%
    09:00 +11°C° 0 mm 4 m/s 747 mmHg 59%
    10:00 +12°C° 0 mm 4 m/s 747 mmHg 51%
    11:00 +14°C° 0 mm 5 m/s 746 mmHg 43%
    12:00 +15°C° 0 mm 5 m/s 746 mmHg 40%
    13:00 +15°C° 0 mm 5 m/s 745 mmHg 38%
    14:00 +16°C° 0 mm 5 m/s 745 mmHg 35%
    15:00 +16°C° 0 mm 5 m/s 744 mmHg 36%
    16:00 +15°C° 0 mm 4 m/s 744 mmHg 37%
    17:00 +15°C° 0 mm 4 m/s 744 mmHg 38%
    18:00 +13°C° 0 mm 3 m/s 744 mmHg 43%
    19:00 +11°C° 0 mm 3 m/s 744 mmHg 48%
    20:00 +9°C° 0 mm 2 m/s 744 mmHg 54%
    21:00 +9°C° 0 mm 2 m/s 743 mmHg 54%
    22:00 +8°C° 0 mm 2 m/s 743 mmHg 55%
    23:00 +8°C° 0 mm 2 m/s 743 mmHg 55%
    Mostrar mais